User: anonymous   Login
Location: Olsztyn
(53.7767°N, 20.4765°E)
Time: 14:02:19
(UTC+02:00)
Language:

Tiros 1 despin weight - Orbit

View from above orbital plane
View from above orbital plane
View from above satellite
View from above satellite

Ground track
Ground track

The orbit data is extracted from the following two-line orbital elements,

1 00115U 60002D   24200.48577862  .00006253  00000-0  66010-3 0  9992
2 00115  48.1641 280.5347 0031336   0.4967 359.5974 14.89911525413605
Epoch (UTC): 18 July 2024 11:39:31
Eccentricity: 0.0031336
inclination: 48.1641°
perigee height: 576 km
apogee height: 620 km
right ascension of ascending node: 280.5347°
argument of perigee: 0.4967°
revolutions per day: 14.89911525
mean anomaly at epoch: 359.5974°
orbit number at epoch: 41360

The dashed part of the orbit path shows where the satellite is in the earth's shadow,  

DLR